This is the latest recevied weather packets stored in our database for station/object ALANSN-2. If no packets are shown the sender has not sent any weather packets the latest 10 day(s).
| Time | Temp. | Humidity | Pressure | Rain* | Wind** | Luminosity | Snow |
|---|---|---|---|---|---|---|---|
| 1787699520 | 23.89° C | 62% | 1027.5 hPa | 0 mm | - | 97 W/m² | - |
| 1787699225 | 23.89° C | 61% | 1027.6 hPa | 0 mm | - | 101 W/m² | - |
| 1787698919 | 23.33° C | 63% | 1027.8 hPa | 0 mm | - | 108 W/m² | - |
| 1787698626 | 23.33° C | 62% | 1027.9 hPa | 0 mm | - | 127 W/m² | - |
| 1787698320 | 23.33° C | 62% | 1027.9 hPa | 0 mm | - | 133 W/m² | - |
| 1787698020 | 23.33° C | 62% | 1027.9 hPa | 0 mm | - | 156 W/m² | - |
| 1787697720 | 23.33° C | 63% | 1027.8 hPa | 0 mm | - | 178 W/m² | - |
| 1787697420 | 23.33° C | 63% | 1028 hPa | 0 mm | - | 180 W/m² | - |
| 1787697120 | 23.33° C | 63% | 1028 hPa | 0 mm | - | 201 W/m² | - |
| 1787696820 | 23.89° C | 63% | 1027.9 hPa | 0 mm | - | 200 W/m² | - |
| 1787696520 | 23.89° C | 63% | 1028.1 hPa | 0 mm | - | 201 W/m² | - |
| 1787696220 | 23.89° C | 63% | 1027.8 hPa | 0 mm | - | 175 W/m² | - |
| 1787695920 | 24.44° C | 66% | 1028.1 hPa | 0 mm | - | 203 W/m² | - |
| 1787695620 | 24.44° C | 66% | 1028.1 hPa | 0 mm | - | 203 W/m² | - |
| 1787695320 | 25° C | 63% | 1028 hPa | 0 mm | - | 269 W/m² | - |
| 1787695020 | 25° C | 59% | 1028 hPa | 0 mm | - | 301 W/m² | - |
| 1787694720 | 25° C | 59% | 1028 hPa | 0 mm | - | 301 W/m² | - |
| 1787694420 | 25° C | 60% | 1028.1 hPa | 0 mm | - | 358 W/m² | - |
| 1787694120 | 25° C | 63% | 1028 hPa | 0 mm | - | 417 W/m² | - |
| 1787693820 | 25° C | 63% | 1028 hPa | 0 mm | - | 417 W/m² | - |
| 1787693520 | 24.44° C | 61% | 1028.3 hPa | 0 mm | - | 465 W/m² | - |
| 1787693220 | 23.89° C | 64% | 1028.1 hPa | 0 mm | - | 238 W/m² | - |
| 1787692920 | 23.89° C | 64% | 1028.1 hPa | 0 mm | - | 238 W/m² | - |
| 1787692620 | 24.44° C | 61% | 1028.1 hPa | 0 mm | - | 251 W/m² | - |
| 1787692320 | 23.89° C | 62% | 1028.1 hPa | 0 mm | - | 500 W/m² | - |
* Rain latest hour (hover to see other rain measurements)
** Current wind speed in m/s (hover to see current wind gust speed)